GW1492 Weather Reports


time (UTC)temp
C
wind
direction
speed
KPH
gust
KPH
rain 1hr
cm
rain 24hr
cm
rain mn
cm
humidity
%
barometer
mb
20260504201541 19 11 3.2 4.8 0.00 0.00 0.00 64 1015.2
20260504200320 19 355 1.6 3.2 0.00 0.00 0.00 63 1015.2
20260504195752 19 3 0.0 1.6 0.00 0.00 0.00 59 1015.5
20260504195125 19 98 0.0 3.2 0.00 0.00 0.00 57 1015.2
20260504194552 19 353 3.2 3.2 0.00 0.00 0.00 64 1015.5
20260504193936 19 12 3.2 3.2 0.00 0.00 0.00 61 1015.5
20260504193338 19 351 3.2 4.8 0.00 0.00 0.00 57 1015.9
20260504192722 20 125 3.2 3.2 0.00 0.00 0.00 54 1015.5
20260504192139 21 264 4.8 6.4 0.00 0.00 0.00 51 1015.5
20260504191533 22 353 1.6 3.2 0.00 0.00 0.00 54 1015.9
20260504190949 22 14 3.2 4.8 0.00 0.00 0.00 55 1015.9
20260504185733 22 1 1.6 3.2 0.00 0.00 0.00 53 1016.2
20260504184535 22 115 0.0 0.0 0.00 0.00 0.00 48 1016.2
20260504183943 22 196 1.6 3.2 0.00 0.00 0.00 54 1016.2
20260504183329 21 104 4.8 6.4 0.00 0.00 0.00 52 1016.2
20260504182741 20 70 1.6 3.2 0.00 0.00 0.00 60 1016.2
20260504182142 21 243 6.4 8.0 0.00 0.00 0.00 54 1016.2
20260504181512 18 280 3.2 4.8 0.00 0.00 0.00 55 1016.2
20260504180923 20 273 1.6 3.2 0.00 0.00 0.00 56 1016.2
20260504180320 19 299 1.6 3.2 0.00 0.00 0.00 62 1016.2
20260504175748 18 283 3.2 4.8 0.00 0.00 0.00 58 1016.2
20260504174534 18 16 0.0 1.6 0.00 0.00 0.00 64 1016.5
20260504173931 18 297 1.6 3.2 0.00 0.00 0.00 67 1016.9
20260504172713 18 292 3.2 4.8 0.00 0.00 0.00 65 1017.2
20260504172134 18 290 1.6 3.2 0.00 0.00 0.00 67 1016.9
20260504171554 17 325 1.6 3.2 0.00 0.00 0.00 68 1017.2
20260504170919 17 325 1.6 3.2 0.00 0.00 0.00 68 1017.6
20260504170335 18 186 3.2 4.8 0.00 0.00 0.00 69 1017.6
20260504160347 16 306 0.0 1.6 0.00 0.00 0.00 75 1017.9
20260504141236 8 291 0.0 0.0 0.00 0.00 0.00 89 1018.9
20260504140653 8 247 0.0 1.6 0.00 0.00 0.00 89 1018.9
20260504130633 9 297 0.0 0.0 0.00 0.00 0.00 81 1019.6
20260504110627 7 25 0.0 0.0 0.00 0.00 0.00 73 1016.9
20260504081815 7 232 0.0 0.0 0.00 0.00 0.00 78 1017.6
20260504081216 7 336 0.0 0.0 0.00 0.00 0.00 78 1017.6
20260504080626 7 317 0.0 0.0 0.00 0.00 0.00 76 1017.2
20260504045417 7 134 0.0 0.0 0.00 0.00 0.00 78 1018.2
20260504044831 6 277 0.0 0.0 0.00 0.00 0.00 80 1018.6
20260504044221 6 240 0.0 0.0 0.00 0.00 0.00 78 1018.2
20260504043642 6 29 0.0 0.0 0.00 0.00 0.00 79 1017.9
20260504043048 6 247 0.0 0.0 0.00 0.00 0.00 78 1017.9
20260504042431 6 118 0.0 0.0 0.00 0.00 0.00 78 1017.9
20260504041228 6 96 0.0 0.0 0.00 0.00 0.00 78 1017.9
20260504040644 6 32 0.0 0.0 0.00 0.00 0.00 78 1017.9
20260504040030 6 97 0.0 0.0 0.00 0.00 0.00 77 1017.9
20260504035428 6 108 0.0 0.0 0.00 0.00 0.00 77 1017.9
20260504034215 7 109 0.0 1.6 0.00 0.00 0.00 77 1017.9
20260504033612 7 105 0.0 0.0 0.00 0.00 0.00 76 1017.9
20260504033036 7 294 0.0 0.0 0.00 0.00 0.00 76 1017.9
20260504031244 7 13 0.0 0.0 0.00 0.00 0.00 75 1017.9
20260504030018 7 93 0.0 0.0 0.00 0.00 0.00 74 1017.9
20260504025414 7 247 0.0 0.0 0.00 0.00 0.00 73 1017.9
20260504024824 7 121 0.0 0.0 0.00 0.00 0.00 73 1017.9
20260504024220 7 270 0.0 0.0 0.00 0.00 0.00 72 1017.9
20260504023633 7 295 0.0 0.0 0.00 0.00 0.00 72 1017.9
20260504023027 7 263 0.0 0.0 0.00 0.00 0.00 72 1017.9
20260504022437 7 247 0.0 0.0 0.00 0.00 0.00 71 1018.2
20260504021834 8 184 0.0 0.0 0.00 0.00 0.00 68 1017.9
20260504020620 8 229 0.0 0.0 0.00 0.00 0.00 68 1017.9
20260504020020 8 72 0.0 0.0 0.00 0.00 0.00 65 1017.6
20260504015443 8 130 0.0 0.0 0.00 0.00 0.00 65 1017.6
20260504014826 8 345 0.0 0.0 0.00 0.00 0.00 67 1017.6
20260504014244 8 335 0.0 0.0 0.00 0.00 0.00 66 1017.6
20260504013650 8 273 0.0 0.0 0.00 0.00 0.00 66 1017.9
20260504012412 9 340 0.0 0.0 0.00 0.00 0.00 63 1017.6
20260504011837 9 261 0.0 0.0 0.00 0.00 0.00 62 1017.9
20260504011214 9 124 0.0 0.0 0.00 0.00 0.00 62 1017.6
20260504010635 9 321 0.0 0.0 0.00 0.00 0.00 61 1017.6
20260504010049 10 103 0.0 0.0 0.00 0.00 0.00 60 1017.2
20260504005438 10 337 0.0 0.0 0.00 0.00 0.00 60 1017.6
20260504004247 10 78 0.0 0.0 0.00 0.00 0.00 55 1017.2
20260504003614 11 8 0.0 0.0 0.00 0.00 0.00 50 1017.6
20260504003040 11 18 0.0 0.0 0.00 0.00 0.00 53 1017.6
20260504002436 11 32 0.0 1.6 0.00 0.00 0.00 47 1017.2
20260504001818 11 28 0.0 1.6 0.00 0.00 0.00 48 1016.9
20260504001219 11 32 1.6 3.2 0.00 0.00 0.00 46 1017.2
20260504000654 11 32 1.6 1.6 0.00 0.00 0.00 46 1016.9
20260504000042 12 40 0.0 1.6 0.00 0.00 0.00 46 1016.9
20260503235412 12 51 0.0 1.6 0.00 0.00 0.00 47 1017.2
20260503234815 12 6 0.0 1.6 0.00 0.00 0.00 47 1017.2
20260503234236 12 20 0.0 1.6 0.00 0.00 0.00 43 1017.2
20260503233627 12 48 0.0 0.0 0.00 0.00 0.00 45 1017.2
20260503233035 12 72 0.0 0.0 0.00 0.00 0.00 43 1017.2
20260503232447 12 48 0.0 1.6 0.00 0.00 0.00 40 1016.9
20260503231819 12 22 1.6 3.2 0.00 0.00 0.00 41 1016.9
20260503231252 13 53 0.0 1.6 0.00 0.00 0.00 38 1017.2
20260503230636 13 90 0.0 0.0 0.00 0.00 0.00 39 1017.2
20260503230041 13 8 0.0 0.0 0.00 0.00 0.00 41 1017.2
20260503224223 13 278 1.6 3.2 0.00 0.00 0.00 39 1017.6
20260503223614 13 353 1.6 3.2 0.00 0.00 0.00 39 1017.2
20260503223014 13 2 0.0 1.6 0.00 0.00 0.00 39 1017.6
20260503222422 13 349 3.2 4.8 0.00 0.00 0.00 39 1017.6
20260503221820 13 344 3.2 3.2 0.00 0.00 0.00 39 1017.2
20260503221224 13 66 1.6 3.2 0.00 0.00 0.00 40 1017.2
20260503220654 13 70 0.0 1.6 0.00 0.00 0.00 40 1017.6
20260503220044 14 29 0.0 1.6 0.00 0.00 0.00 38 1017.6
20260503215439 13 347 3.2 3.2 0.00 0.00 0.00 38 1017.2
20260503214810 13 27 1.6 1.6 0.00 0.00 0.00 38 1017.6
20260503214224 14 24 0.0 0.0 0.00 0.00 0.00 40 1017.6
20260503213647 14 333 0.0 1.6 0.00 0.00 0.00 41 1017.6
20260503212440 14 291 3.2 4.8 0.00 0.00 0.00 35 1017.6
20260503211827 14 59 0.0 1.6 0.00 0.00 0.00 37 1017.6
20260503211227 14 0 1.6 3.2 0.00 0.00 0.00 35 1017.6
20260503210647 14 284 0.0 0.0 0.00 0.00 0.00 36 1017.6
20260503210017 14 352 1.6 3.2 0.00 0.00 0.00 36 1017.9
20260503205430 14 238 8.0 11.3 0.00 0.00 0.00 34 1017.6
20260503204242 14 41 3.2 4.8 0.00 0.00 0.00 34 1017.9
20260503203038 13 156 1.6 1.6 0.00 0.00 0.00 32 1017.9
20260503202422 14 247 9.7 11.3 0.00 0.00 0.00 33 1017.9